Погода в Журавно

Украина / Львовская область     49°15′38″N   24°16′35″E
темп.,
°C
ветер,
м/с
пор.,
м/с
влажн.,
%
обл.,
%
осадки,
мм/ч
давл.,
гПа
погр.,
м
21 января, пт
пт2123:00−3з815745 0.0 1012965
02:00−3зсз81677100 0.1 10131217
05:00−4з8147756 0.1 1013977
08:00−4з8157570 0.1 10151099
11:00−3з9147581 0.0 10161205
14:00−3зсз9148198 0.1 10151197
17:00−3зсз71384100 0.1 10151133
20:00−3зсз81382100 0.2 1015957
22 января, сб
сб2223:00−4з71387100 0.1 1016881
02:00−4з61294100 0.5 1015924
05:00−5зсз7128899 0.5 1015781
08:00−5з6138794 0.5 1015641
11:00−4з71393100 0.4 1015988
14:00−3сз71293100 1.7 10161034
17:00−4сз5108885 0.4 1019423
20:00−5сз61191100 0.5 1022725
23 января, вс
вс2323:00−4зсз71292100 0.1 1023891
02:00−4зсз61394100 0.3 1022922
05:00−3ссз71294100 1.6 10231140
08:00−6сз499396 1.8 1026485
11:00−4сз5888100 0.1 1027938
14:00−4с5782100 0.5 1028978
17:00−7с259297 0.1 103092
20:00−10зсз2397100 0.1 103246
24 января, пн
пн2423:00−9ссз2497100 0.2 1034103
02:00−11сз119872 0.3 103513
05:00−12зсз119994 0.1 103612
08:00−13зсз119996 0.1 103813
11:00−10зсз229193 0.0 1038222
14:00−7сз228349 0.0 1036337
17:00−10зсз11945 0.0 103710
20:00−13юз119757 0.0 103710
25 января, вт
вт2523:00−14юз119849 0.0 103711
02:00−15юз119691 0.0 103610
05:00−14зюз1193100 0.0 103410
08:00−15ю1192100 0.0 103312
11:00−7з1370100 0.1 1031146
14:00−2зюз3694100 0.6 1028319
17:00−2з41297100 0.9 1026507
20:00−2з61497100 1.7 1026667